User: anonymous   Login
Location: Vancouver
(49.2500°N, 123.1330°W)
Time: 11:29:56
(UTC-07:00)
Language:

Iridium 35 - Orbit

View from above orbital plane
View from above orbital plane
View from above satellite
View from above satellite

Ground track
Ground track

The orbit data is extracted from the following two-line orbital elements,

1 24966U 97056B   16205.31609639  .00000180  00000-0  57180-4 0  9999
2 24966  86.3964  96.2057 0002255  84.1514 275.9938 14.34213060985392
Epoch (UTC): 23 July 2016 07:35:10
Eccentricity: 0.0002255
inclination: 86.3964°
perigee height: 776 km
apogee height: 779 km
right ascension of ascending node: 96.2057°
argument of perigee: 84.1514°
revolutions per day: 14.34213060
mean anomaly at epoch: 275.9938°
orbit number at epoch: 98539

The dashed part of the orbit path shows where the satellite is in the earth's shadow,  

DLR